BEIDOU-2 M4 (C12)

Last updated on Mon Oct 20 2025 00:03:24 GMT+0000 (Coordinated Universal Time)

1 38251U 12018B 25292.02679038 -.00000062 00000+0 00000+0 0 9993 2 38251 55.8673 312.2305 0015821 269.8815 89.9798 1.86232202 91452
UTC large
Height (km)
Speed (km/s)
/
Latitude / Longitude
Inclination (degrees)
Orbital Period (minutes)
Azimuth
Elevation
Range (km)
Doppler Factor

Next 0 passes for location: London (51.5072 / 0.1276)

Sorry there are no passes over London.